Hourly Data Report for September 16, 2017

All times are specified in Local Standard Time (LST). Add 1 hour to adjust for Daylight Saving Time where and when it is observed.

IQALUIT CLIMATE
NUNAVUT

63°44'50.000" N
68°32'40.000" W
33.50 m
2402592
71321
XFB

Download Data

Hourly Data (September 2017)
Hourly Data Report for September 16, 2017
Temp Definition
°C
Dew Point Temp Definition
°C
Rel Hum Definition
%
Wind Dir Definition
10's deg

Wind Spd Definition
km/h
Visibility Definition
km
Stn Press Definition
kPa
Hmdx Definition


Wind Chill Definition


Weather Definition


TIME
00:00 -0.1 -1.4 91 33 15   100.73   -5 LegendNANA
01:00 0.2 -1.3 90 32 17   100.75     LegendNANA
02:00 0.6 -0.8 90 32 15   100.77     LegendNANA
03:00 1.1 -0.4 90 32 20   100.82     LegendNANA
04:00 1.1 -0.6 88 30 21   100.86     LegendNANA
05:00 1.3 -0.7 86 30 29   100.90     LegendNANA
06:00 1.2 -1.1 85 31 25   100.93     LegendNANA
07:00 1.0 -1.3 85 31 28   100.97     LegendNANA
08:00 1.4 -1.8 79 30 32   101.02     LegendNANA
09:00 1.8 -1.7 77 31 31   101.04     LegendNANA
10:00 2.7 -2.3 70 31 32   101.04     LegendNANA
11:00 2.8 -2.2 70 32 32   101.05     LegendNANA
12:00 2.8 -2.4 68 32 33   101.06     LegendNANA
13:00 3.4 -1.9 68 33 34   101.08     LegendNANA
14:00 4.3 -1.0 68 34 34   101.09     LegendNANA
15:00 4.9 -0.6 68 34 30   101.09     LegendNANA
16:00 4.8 -0.6 68 34 29   101.10     LegendNANA
17:00 3.5 -0.9 73 34 33   101.13     LegendNANA
18:00 2.7 -1.3 75 32 29   101.16     LegendNANA
19:00 1.9 0.2 88 33 14   101.17     LegendNANA
20:00 1.5 0.1 91 32 11   101.15     LegendNANA
21:00 2.0 0.5 90 30 16   101.14     LegendNANA
22:00 2.3 0.1 85 31 20   101.15     LegendNANA
23:00 1.8 -0.3 86 30 18   101.15     LegendNANA

Notes on Data Quality.

Legend

  • E = Estimated
  • M = Missing
  • NA = Not Available
  • ‡ = Partner data that is not subject to review by the National Climate Archives
Date modified: